Regional Weather Roundup
Issued by NWS State College, PA

Home | Current Version | Previous Version | Text Only | Print | Product List | Glossary On
Versions: 1 2 3 4 5 6 7 8 9 10 11 12 13 14 15 16 17 18 19 20 21 22 23 24 25 26 27 28 29 30 31 32 33 34 35 36 37 38 39 40 41 42 43 44 45 46 47 48 49 50
000
ASUS41 KCTP 231103
RWRCTP

REGIONAL WEATHER ROUNDUP
NATIONAL WEATHER SERVICE STATE COLLEGE PA
700 AM EDT MON APR 23 2018

Note: "fair" indicates few or no clouds below 12,000 feet with no
significant weather and/or obstructions to visibility.

* = STATION THAT DOES NOT REPORT PRECIPITATION /E.G. RAIN...SNOW...ETC/
    THUNDER OR FOG.

PAZ002>004-007>009-013>016-020>023-029>032-231200-
WESTERN PENNSYLVANIA

CITY           SKY/WX    TMP DP  RH WIND       PRES   REMARKS
ERIE           FAIR      49  23  36 SE12      30.32R
MEADVILLE      FAIR      47  27  45 VRB6      30.31R
FRANKLIN*      FAIR      43  23  45 E7        30.33R
NEW CASTLE     FAIR      47  34  60 CALM      30.31R
BEAVER COUNTY  CLEAR     48  34  57 E5        30.29
BUTLER*        FAIR      47  34  60 E8        30.31R
PITTSBURGH INT MOCLDY    50  38  63 E6        30.28R
PITTSBURGH     FAIR      50  38  63 E6        30.28R
INDIANA*       CLEAR     48  36  61 E7        30.36R
LATROBE        CLEAR     52  37  58 E8        30.31R
WASHINGTON CO* FAIR      50  39  66 E7        30.30R
$$

PAZ004>006-010>012-017>019-024>028-033>037-041-042-045-046-049>053-231200-
CENTRAL PENNSYLVANIA

CITY           SKY/WX    TMP DP  RH WIND       PRES   REMARKS
BRADFORD       FAIR      31  20  63 SE3       30.37R
DUBOIS         FAIR      42  22  44 E9        30.34R
CLEARFIELD     FAIR      34  23  64 CALM      30.38R
JOHNSTOWN      FAIR      45  34  65 SE6       30.33R
ALTOONA        FAIR      44  33  65 CALM      30.38R
STATE COLLEGE  CLEAR     36  25  64 CALM      30.39R
WILLIAMSPORT   FAIR      34  25  69 NW5       30.44R
SELINSGROVE    FAIR      33  29  85 CALM      30.43R
FT INDIANTOWN  FAIR      36  36  99 CALM      30.43R
CAPITAL CITY   FAIR      44  36  73 CALM      30.42R
HARRISBURG     FAIR      42  33  70 CALM      30.42R
YORK           FAIR      35  33  92 CALM      30.42R
$$

PAZ038>040-043-044-047-048-054-055-060>062-067>071-231200-
EASTERN PENNSYLVANIA

CITY           SKY/WX    TMP DP  RH WIND       PRES   REMARKS
SCRANTON       FAIR      36  21  54 CALM      30.44R
MOUNT POCONO   FAIR      30  24  78 CALM      30.42R
ALLENTOWN      FAIR      35  28  75 N3        30.45R
QUAKERTOWN*    SUNNY     34  30  86 CALM      30.44R
READING        FAIR      40  35  83 CALM      30.44R
LANCASTER      FAIR      39  35  86 E3        30.43R
COATESVILLE    FAIR      43  37  81 CALM      30.44R
POTTSTOWN      FAIR      37  32  82 CALM      30.46R
BLUE BELL      FAIR      37  36  93 CALM      30.46R
DOYLESTOWN     FAIR      37  32  82 CALM      30.44R
WILLOW GROVE   NOT AVBL
NORTH PHILA    FAIR      44  34  67 CALM      30.46R
PHILADELPHIA   FAIR      44  38  79 CALM      30.45R
$$




USA.gov is the U.S. government's official web portal to all federal, state and local government web resources and services.